Froid extrême Valable du: 24-02-2018 12:59 Au: 25-02-2018 23:59 Avertissement pour: Froid extrême Niveau: Jaune info button
nederlands:


français:
 



Thunder radar more information blitzortung!


Rain radar more information rain snow radar


Visitez nos sites météorologiques autres:

Template documentation
and downloads

And another site



Weather Underground Historique Text

par jour Résumé pour février 24, 2018 Les unités:  métriques    impériales   les deux
« Précédente Jour
Suivant Jour »
par jour Par semaine mensuel Annuel personnalisé
  actuel: élevé: Basse: Moyenne:
Température: -16.2 °C -17.8 °C -20.9 °C -19.5 °C
Point de rosée: -22.2 °C -17.8 °C -23.7 °C -23.1 °C
Humidité: 45 % Humidity % 45 % 62 %
Vitesse du vent: 31.1 km/h 0 km/h 0 km/h 9.7 km/h
Rafale de vent: 38.8 km/h 0 km/h - -
Vent:ENE - - ENE
Pression baro: 34601.5 hPa 0 hPa 34520.3 hPa -
Précipitations: 0 mm      
Historical Graphs
 
 
Les données tabulaires pour février 24, 2018
Temps Température Point de rosée Pression baro Vent Vitesse du vent Rafale de vent Humidité Les précipitations (horaires)
-17.8 °C -17.8 °C 0 hPa Calm     Humidity % 0 mm
00:03 -19.4 °C -23 °C 34520.3 hPa NE 7.7 km/h 18.2 km/h 61 % 0 mm
00:08 -19.4 °C -23 °C 34533.8 hPa NE 2.6 km/h 18.2 km/h 61 % 0 mm
00:14 -19.4 °C -23.1 °C 34533.8 hPa East 2.6 km/h 18.2 km/h 61 % 0 mm
00:19 -19.4 °C -23.2 °C 34533.8 hPa ENE 5.1 km/h 12.9 km/h 60 % 0 mm
00:24 -19.5 °C -23.2 °C 34533.8 hPa East 2.6 km/h 12.9 km/h 60 % 0 mm
00:29 -19.5 °C -23.2 °C 34533.8 hPa NE 5.1 km/h 12.9 km/h 60 % 0 mm
00:34 -19.5 °C -23.1 °C 34533.8 hPa NE 5.1 km/h 12.9 km/h 61 % 0 mm
00:39 -19.6 °C -23 °C 34533.8 hPa NE 5.1 km/h 12.9 km/h 62 % 0 mm
00:44 -19.6 °C -23.1 °C 34533.8 hPa ENE 2.6 km/h 12.9 km/h 62 % 0 mm
00:49 -19.7 °C -23.1 °C 34533.8 hPa NE 5.1 km/h 10.3 km/h 62 % 0 mm
00:54 -19.7 °C -23.2 °C 34533.8 hPa NE 2.6 km/h 10.3 km/h 62 % 0 mm
00:59 -19.8 °C -23.2 °C 34533.8 hPa NE 5.1 km/h 10.3 km/h 62 % 0 mm
01:04 -19.8 °C -23.2 °C 34533.8 hPa ENE 5.1 km/h 10.3 km/h 63 % 0 mm
01:09 -19.8 °C -23.2 °C 34533.8 hPa NE 7.7 km/h 10.3 km/h 63 % 0 mm
01:14 -19.9 °C -23.1 °C 34544 hPa NE 7.7 km/h 15.6 km/h 64 % 0 mm
01:19 -19.9 °C -23.1 °C 34533.8 hPa NE 5.1 km/h 15.6 km/h 64 % 0 mm
01:24 -19.9 °C -23.2 °C 34533.8 hPa NE 7.7 km/h 15.6 km/h 64 % 0 mm
01:29 -19.9 °C -23.2 °C 34533.8 hPa NE 7.7 km/h 12.9 km/h 64 % 0 mm
01:34 -19.9 °C -23.2 °C 34533.8 hPa ENE 5.1 km/h 10.3 km/h 64 % 0 mm
01:40 -20 °C -23.2 °C 34533.8 hPa NE 10.3 km/h 10.3 km/h 64 % 0 mm
01:45 -20.1 °C -23.2 °C 34533.8 hPa NNE 7.7 km/h 10.3 km/h 65 % 0 mm
01:50 -20.1 °C -23.2 °C 34533.8 hPa NE 5.1 km/h 10.3 km/h 65 % 0 mm
01:55 -20.1 °C -23.1 °C 34533.8 hPa NE 5.1 km/h 10.3 km/h 66 % 0 mm
02:00 -20.1 °C -23 °C 34544 hPa NE 10.3 km/h 10.3 km/h 67 % 0 mm
02:05 -20.2 °C -23.1 °C 34544 hPa NE 7.7 km/h 15.6 km/h 67 % 0 mm
02:10 -20.2 °C -23.1 °C 34544 hPa NE 5.1 km/h 15.6 km/h 67 % 0 mm
02:15 -20.2 °C -23 °C 34544 hPa NE 7.7 km/h 15.6 km/h 68 % 0 mm
02:20 -20.2 °C -23 °C 34544 hPa NE 2.6 km/h 15.6 km/h 68 % 0 mm
02:25 -20.3 °C -23.1 °C 34544 hPa NE 5.1 km/h 15.6 km/h 68 % 0 mm
02:30 -20.3 °C -23 °C 34544 hPa NE 5.1 km/h 15.6 km/h 69 % 0 mm
02:35 -20.3 °C -23 °C 34544 hPa NNE 7.7 km/h 15.6 km/h 69 % 0 mm
02:40 -20.3 °C -23 °C 34544 hPa NE 5.1 km/h 15.6 km/h 69 % 0 mm
02:45 -20.3 °C -22.9 °C 34544 hPa NE 10.3 km/h 15.6 km/h 69 % 0 mm
02:50 -20.3 °C -22.8 °C 34533.8 hPa ENE 10.3 km/h 20.8 km/h 70 % 0 mm
02:55 -20.3 °C -22.8 °C 34533.8 hPa ENE 10.3 km/h 20.8 km/h 70 % 0 mm
03:00 -20.3 °C -22.8 °C 34533.8 hPa East 5.1 km/h 28.5 km/h 70 % 0 mm
03:05 -20.3 °C -22.8 °C 34533.8 hPa ENE 12.9 km/h 28.5 km/h 70 % 0 mm
03:10 -20.3 °C -22.8 °C 34533.8 hPa NE 2.6 km/h 23.3 km/h 70 % 0 mm
03:16 -20.3 °C -22.8 °C 34533.8 hPa East 2.6 km/h 23.3 km/h 70 % 0 mm
03:21 -20.3 °C -22.9 °C 34544 hPa NE 7.7 km/h 23.3 km/h 70 % 0 mm
03:26 -20.3 °C -22.9 °C 34544 hPa ENE 5.1 km/h 23.3 km/h 70 % 0 mm
03:31 -20.3 °C -22.9 °C 34544 hPa ENE 5.1 km/h 20.8 km/h 70 % 0 mm
03:36 -20.4 °C -22.9 °C 34544 hPa NE 5.1 km/h 20.8 km/h 71 % 0 mm
03:41 -20.4 °C -22.9 °C 34544 hPa East 2.6 km/h 20.8 km/h 71 % 0 mm
03:46 -20.4 °C -22.9 °C 34544 hPa ENE 2.6 km/h 20.8 km/h 71 % 0 mm
03:51 -20.4 °C -22.9 °C 34544 hPa ENE 10.3 km/h 20.8 km/h 71 % 0 mm
03:56 -20.4 °C -22.9 °C 34544 hPa ENE 5.1 km/h 18.2 km/h 71 % 0 mm
04:01 -20.5 °C -22.9 °C 34544 hPa ENE 10.3 km/h 15.6 km/h 71 % 0 mm
04:06 -20.5 °C -22.9 °C 34544 hPa East 18.2 km/h 20.8 km/h 72 % 0 mm
04:11 -20.5 °C -22.9 °C 34544 hPa ENE 5.1 km/h 25.9 km/h 72 % 0 mm
04:16 -20.5 °C -22.9 °C 34544 hPa ENE 7.7 km/h 25.9 km/h 72 % 0 mm
04:21 -20.5 °C -22.9 °C 34544 hPa East 2.6 km/h 25.9 km/h 72 % 0 mm
04:26 -20.6 °C -23 °C 34544 hPa East 12.9 km/h 20.8 km/h 72 % 0 mm
04:31 -20.6 °C -23 °C 34554.1 hPa NE 5.1 km/h 18.2 km/h 72 % 0 mm
04:37 -20.6 °C -23 °C 34554.1 hPa ENE 5.1 km/h 18.2 km/h 72 % 0 mm
04:42 -20.7 °C -23.1 °C 34554.1 hPa East 5.1 km/h 15.6 km/h 72 % 0 mm
04:47 -20.7 °C -23.1 °C 34554.1 hPa ENE 7.7 km/h 18.2 km/h 72 % 0 mm
04:52 -20.7 °C -23.1 °C 34554.1 hPa NE 10.3 km/h 18.2 km/h 72 % 0 mm
04:57 -20.7 °C -23.1 °C 34554.1 hPa East 7.7 km/h 18.2 km/h 72 % 0 mm
05:02 -20.7 °C -23.1 °C 34554.1 hPa NE 5.1 km/h 18.2 km/h 72 % 0 mm
05:07 -20.7 °C -23 °C 34554.1 hPa ENE 5.1 km/h 20.8 km/h 73 % 0 mm
05:12 -20.7 °C -23 °C 34554.1 hPa ENE 10.3 km/h 20.8 km/h 73 % 0 mm
05:17 -20.7 °C -23 °C 34554.1 hPa NE 10.3 km/h 23.3 km/h 73 % 0 mm
05:22 -20.7 °C -23 °C 34554.1 hPa East 5.1 km/h 23.3 km/h 73 % 0 mm
05:27 -20.7 °C -23 °C 34554.1 hPa ENE 7.7 km/h 23.3 km/h 73 % 0 mm
05:32 -20.8 °C -23.1 °C 34554.1 hPa NE 7.7 km/h 20.8 km/h 73 % 0 mm
05:37 -20.7 °C -23.1 °C 34554.1 hPa NE 7.7 km/h 28.5 km/h 72 % 0 mm
05:42 -20.8 °C -23.1 °C 34554.1 hPa ENE 7.7 km/h 36.2 km/h 72 % 0 mm
05:47 -20.8 °C -23.1 °C 34554.1 hPa ENE 10.3 km/h 36.2 km/h 72 % 0 mm
05:52 -20.8 °C -23.1 °C 34554.1 hPa ENE 10.3 km/h 36.2 km/h 72 % 0 mm
05:57 -20.8 °C -23.1 °C 34554.1 hPa ENE 5.1 km/h 25.9 km/h 72 % 0 mm
06:02 -20.8 °C -23.1 °C 34554.1 hPa ENE 15.6 km/h 33.6 km/h 72 % 0 mm
06:07 -20.8 °C -23.1 °C 34554.1 hPa NE 7.7 km/h 33.6 km/h 72 % 0 mm
06:12 -20.8 °C -23.1 °C 34554.1 hPa East 12.9 km/h 33.6 km/h 72 % 0 mm
06:17 -20.8 °C -23.2 °C 34554.1 hPa NE 5.1 km/h 31.1 km/h 71 % 0 mm
06:22 -20.8 °C -23.3 °C 34554.1 hPa East 5.1 km/h 25.9 km/h 71 % 0 mm
06:27 -20.9 °C -23.3 °C 34554.1 hPa East 7.7 km/h 25.9 km/h 71 % 0 mm
06:32 -20.9 °C -23.2 °C 34554.1 hPa NNE 7.7 km/h 20.8 km/h 72 % 0 mm
06:37 -20.9 °C -23.2 °C 34567.7 hPa NE 5.1 km/h 20.8 km/h 72 % 0 mm
06:42 -20.9 °C -23.4 °C 34567.7 hPa NE 12.9 km/h 20.8 km/h 71 % 0 mm
06:47 -20.9 °C -23.3 °C 34567.7 hPa East 2.6 km/h 20.8 km/h 72 % 0 mm
06:52 -20.9 °C -23.4 °C 34567.7 hPa ENE 7.7 km/h 23.3 km/h 71 % 0 mm
06:57 -20.9 °C -23.3 °C 34567.7 hPa ENE 10.3 km/h 23.3 km/h 71 % 0 mm
07:02 -20.9 °C -23.4 °C 34567.7 hPa NE 15.6 km/h 23.3 km/h 70 % 0 mm
07:07 -20.9 °C -23.4 °C 34567.7 hPa ENE 7.7 km/h 23.3 km/h 70 % 0 mm
07:12 -20.9 °C -23.4 °C 34567.7 hPa ESE 12.9 km/h 23.3 km/h 70 % 0 mm
07:17 -20.8 °C -23.5 °C 34577.8 hPa ENE 15.6 km/h 25.9 km/h 69 % 0 mm
07:22 -20.8 °C -23.5 °C 34577.8 hPa NE 7.7 km/h 31.1 km/h 69 % 0 mm
07:27 -20.8 °C -23.5 °C 34577.8 hPa ESE 15.6 km/h 31.1 km/h 69 % 0 mm
07:32 -20.8 °C -23.4 °C 34577.8 hPa ENE 15.6 km/h 31.1 km/h 69 % 0 mm
07:37 -20.8 °C -23.4 °C 34577.8 hPa NE 2.6 km/h 31.1 km/h 69 % 0 mm
07:42 -20.8 °C -23.5 °C 34577.8 hPa East 7.7 km/h 31.1 km/h 69 % 0 mm
07:47 -20.8 °C -23.4 °C 34577.8 hPa ENE 20.8 km/h 23.3 km/h 69 % 0 mm
07:52 -20.8 °C -23.6 °C 34577.8 hPa East 5.1 km/h 23.3 km/h 68 % 0 mm
07:57 -20.8 °C -23.6 °C 34577.8 hPa ESE 7.7 km/h 31.1 km/h 68 % 0 mm
08:02 -20.7 °C -23.6 °C 34577.8 hPa ENE 7.7 km/h 31.1 km/h 67 % 0 mm
08:07 -20.7 °C -23.6 °C 34577.8 hPa NE 25.9 km/h 31.1 km/h 67 % 0 mm
08:12 -20.7 °C -23.7 °C 34591.4 hPa ESE 18.2 km/h 25.9 km/h 66 % 0 mm
08:17 -20.6 °C -23.6 °C 34591.4 hPa NE 2.6 km/h 28.5 km/h 66 % 0 mm
08:22 -20.5 °C -23.6 °C 34591.4 hPa East 5.1 km/h 28.5 km/h 65 % 0 mm
08:27 -20.4 °C -23.6 °C 34591.4 hPa ENE 2.6 km/h 28.5 km/h 65 % 0 mm
08:32 -20.3 °C -23.4 °C 34591.4 hPa NE 23.3 km/h 33.6 km/h 65 % 0 mm
08:37 -20.2 °C -23.4 °C 34591.4 hPa East 2.6 km/h 33.6 km/h 64 % 0 mm
08:42 -20.2 °C -23.5 °C 34591.4 hPa East 10.3 km/h 33.6 km/h 63 % 0 mm
08:47 -20.1 °C -23.5 °C 34591.4 hPa East 7.7 km/h 25.9 km/h 62 % 0 mm
08:52 -19.9 °C -23.4 °C 34591.4 hPa NE 7.7 km/h 28.5 km/h 62 % 0 mm
08:57 -19.9 °C -23.4 °C 34601.5 hPa Calm   28.5 km/h 61 % 0 mm
09:02 -19.8 °C -23.4 °C 34601.5 hPa SSE 2.6 km/h 28.5 km/h 61 % 0 mm
09:07 -19.7 °C -23.4 °C 34601.5 hPa East 18.2 km/h 28.5 km/h 60 % 0 mm
09:12 -19.6 °C -23.4 °C 34601.5 hPa ESE 5.1 km/h 28.5 km/h 59 % 0 mm
09:17 -19.6 °C -23.5 °C 34601.5 hPa NE 18.2 km/h 28.5 km/h 58 % 0 mm
09:22 -19.4 °C -23.3 °C 34601.5 hPa East 10.3 km/h 28.5 km/h 58 % 0 mm
09:27 -19.3 °C -23.3 °C 34601.5 hPa NE 7.7 km/h 28.5 km/h 58 % 0 mm
09:32 -19.2 °C -23.4 °C 34601.5 hPa ENE 2.6 km/h 25.9 km/h 56 % 0 mm
09:37 -19.1 °C -23.4 °C 34611.7 hPa SSE 7.7 km/h 31.1 km/h 55 % 0 mm
09:42 -19.1 °C -23.3 °C 34611.7 hPa NE 10.3 km/h 31.1 km/h 56 % 0 mm
09:47 -18.9 °C -23.3 °C 34611.7 hPa NE 12.9 km/h 31.1 km/h 55 % 0 mm
09:52 -18.8 °C -23.2 °C 34611.7 hPa ENE 2.6 km/h 31.1 km/h 55 % 0 mm
09:53 -18.8 °C -23.3 °C 34591.4 hPa ENE 2.6 km/h 31.1 km/h 55 % 0 mm
09:57 -18.7 °C -23.1 °C 34611.7 hPa ENE 10.3 km/h 31.1 km/h 55 % 0 mm
10:02 -18.7 °C -23.2 °C 34611.7 hPa NE 7.7 km/h 31.1 km/h 54 % 0 mm
10:07 -18.6 °C -23.2 °C 34611.7 hPa ESE 7.7 km/h 31.1 km/h 53 % 0 mm
10:10 -18.5 °C -23.2 °C 34611.7 hPa ENE 10.3 km/h 31.1 km/h 53 % 0 mm
10:15 -18.4 °C -23.1 °C 34611.7 hPa ENE 15.6 km/h 31.1 km/h 53 % 0 mm
10:20 -18.4 °C -23.2 °C 34601.5 hPa SE 20.8 km/h 28.5 km/h 52 % 0 mm
10:25 -18.3 °C -23.2 °C 34601.5 hPa East 31.1 km/h 31.1 km/h 51 % 0 mm
10:30 -18.2 °C -23.2 °C 34601.5 hPa East 20.8 km/h 36.2 km/h 50 % 0 mm
10:35 -18.1 °C -23.2 °C 34601.5 hPa NE 15.6 km/h 36.2 km/h 50 % 0 mm
10:40 -18 °C -23.2 °C 34601.5 hPa ENE 15.6 km/h 36.2 km/h 49 % 0 mm
10:45 -17.9 °C -23.3 °C 34601.5 hPa ENE 12.9 km/h 41.4 km/h 48 % 0 mm
10:50 -17.8 °C -23.1 °C 34601.5 hPa ENE 23.3 km/h 41.4 km/h 49 % 0 mm
10:55 -17.7 °C -23 °C 34601.5 hPa East 12.9 km/h 41.4 km/h 49 % 0 mm
11:00 -17.6 °C -23.2 °C 34611.7 hPa ENE 7.7 km/h 31.1 km/h 47 % 0 mm
11:05 -17.5 °C -23.1 °C 34601.5 hPa NE 28.5 km/h 33.6 km/h 47 % 0 mm
11:10 -17.4 °C -23 °C 34611.7 hPa NE 10.3 km/h 33.6 km/h 47 % 0 mm
11:16 -17.4 °C -23.2 °C 34601.5 hPa Calm   33.6 km/h 46 % 0 mm
11:21 -17.3 °C -22.9 °C 34611.7 hPa ENE 15.6 km/h 33.6 km/h 47 % 0 mm
11:26 -17.2 °C -22.8 °C 34611.7 hPa NNE 5.1 km/h 33.6 km/h 47 % 0 mm
11:31 -17.1 °C -22.8 °C 34611.7 hPa NE 28.5 km/h 36.2 km/h 46 % 0 mm
11:36 -17.1 °C -22.8 °C 34611.7 hPa East 10.3 km/h 41.4 km/h 46 % 0 mm
11:41 -17 °C -22.9 °C 34611.7 hPa NE 18.2 km/h 46.7 km/h 45 % 0 mm
11:46 -17 °C -22.9 °C 34611.7 hPa East 25.9 km/h 46.7 km/h 45 % 0 mm
11:51 -17.1 °C -22.9 °C 34611.7 hPa NNE 20.8 km/h 51.8 km/h 45 % 0 mm
11:56 -17 °C -22.9 °C 34611.7 hPa ENE 7.7 km/h 51.8 km/h 45 % 0 mm
12:01 -16.9 °C -22.7 °C 34611.7 hPa NE 7.7 km/h 51.8 km/h 46 % 0 mm
12:06 -16.8 °C -22.4 °C 34611.7 hPa ENE 10.3 km/h 41.4 km/h 47 % 0 mm
12:12 -16.7 °C -22.7 °C 34611.7 hPa ENE 25.9 km/h 41.4 km/h 45 % 0 mm
12:17 -16.8 °C -22.8 °C 34611.7 hPa NE 12.9 km/h 49.2 km/h 45 % 0 mm
12:22 -16.8 °C -22.6 °C 34601.5 hPa ENE 15.6 km/h 49.2 km/h 46 % 0 mm
12:27 -16.7 °C -22.5 °C 34611.7 hPa ENE 31.1 km/h 49.2 km/h 46 % 0 mm
12:32 -16.7 °C -22.4 °C 34611.7 hPa ENE 7.7 km/h 38.8 km/h 46 % 0 mm
12:37 -16.6 °C -22.3 °C 34601.5 hPa ENE 10.3 km/h 38.8 km/h 46 % 0 mm
12:42 -16.5 °C -22.3 °C 34601.5 hPa ENE 20.8 km/h 38.8 km/h 46 % 0 mm
12:47 -16.4 °C -22.2 °C 34601.5 hPa ENE 12.9 km/h 41.4 km/h 46 % 0 mm
12:52 -16.4 °C -22.4 °C 34601.5 hPa ENE 12.9 km/h 46.7 km/h 45 % 0 mm
12:57 -16.4 °C -22.2 °C 34601.5 hPa ENE 10.3 km/h 46.7 km/h 46 % 0 mm
13:02 -16.3 °C -22.2 °C 34601.5 hPa NE 15.6 km/h 54.4 km/h 46 % 0 mm
13:07 -16.3 °C -22.1 °C 34601.5 hPa ENE 10.3 km/h 54.4 km/h 46 % 0 mm
13:12 -16.2 °C -22.1 °C 34601.5 hPa ENE 25.9 km/h 54.4 km/h 46 % 0 mm
13:17 -16.2 °C -22.2 °C 34601.5 hPa ENE 31.1 km/h 38.8 km/h 45 % 0 mm
Météo
Compliments of Weather Underground - 2 mb

Script développé par  Jim McMurry - jmcmurry@mwt.net Adapté pour le modèle par  Wim van der Kuil - Leuven-Template.eu

Vous trouverez notre info météo Également à:

Weather Underground

Équipement que nous utilisons:

Station de Météo
Davis VP2

Programme Météo
Meteohub

Ordinateur Météo
RaspberryPI 2

Provider
OVH

Davis VP2

Meteohub

RaspberryPI 2

OVH